CALSPHERE 1 1 00900U 64063C 26170.56746505 .00000496 00000+0 49600-3 0 9992 2 00900 90.2233 71.8271 0023729 289.5683 144.3082 13.76625853 71758 CALSPHERE 2 1 00902U 64063E 26170.49496772 .00000047 00000+0 57125-4 0 9998 2 00902 90.2371 75.8508 0017242 215.9139 317.8815 13.52900325856578 LCS 1 1 01361U 65034C 26170.39327255 .00000009 00000+0 48204-4 0 9991 2 01361 32.1354 171.7862 0012298 130.4942 229.6628 9.89310784210106 TEMPSAT 1 1 01512U 65065E 26170.37745028 .00000026 00000+0 36141-4 0 9999 2 01512 89.9987 212.5943 0067905 241.7177 128.8889 13.33594195960342 CALSPHERE 4A 1 01520U 65065H 26170.34241380 .00000108 00000+0 18717-3 0 9996 2 01520 89.8983 122.4665 0072053 97.0008 66.3876 13.36278760962996 OPS 5712 (P/L 160) 1 02826U 67053A 26170.62074354 .00005418 00000+0 76454-3 0 9992 2 02826 69.9171 32.3310 0000804 285.4980 74.6079 14.77743235 66595 OPS 5712 (P/L 153) 1 02874U 67053H 26170.55805154 .00000023 00000+0 55117-4 0 9998 2 02874 69.9735 110.2248 0008396 211.1983 148.8625 13.96828653 7126 RIGIDSPHERE 2 (LCS 4) 1 05398U 71067E 26170.55798031 .00000513 00000+0 16114-3 0 9994 2 05398 87.6215 338.1505 0058301 223.3709 136.2896 14.37869512874228 COSMOS 2493 (SKRL-756 1) 1 39490U 13078A 26170.54981770 .00001843 00000+0 13783-3 0 9991 2 39490 82.4127 258.8755 0011973 230.9115 129.1046 15.02172116678317 COSMOS 2494 (SKRL-756 2) 1 39491U 13078B 26170.54356650 .00002474 00000+0 17261-3 0 9991 2 39491 82.4110 248.2608 0015824 190.4450 169.6451 15.04874098679164